Location: Coupvray
(48.8929°N, 2.7967°E)
Time: 08:45:31
(UTC+00:00)

Cosmos 1536 - Pass Details

Date: 14 July 2020
Orbit: 539 x 559 km, 82.5° (Epoch: 14 August)

Event Time Altitude Azimuth Distance (km) Brightness Sun altitude
Exits shadow 02:02:34 17° 173° (S) 1,449 4.5 -13.9°
Maximum altitude 02:05:34 61° 96° (E) 636 3.2 -13.7°
Drops below altitude 10° 02:09:35 10° 16° (NNE) 1,849 6.8 -13.3°
Sets 02:11:47 0° 13° (NNE) 2,746 7.9 -13.2°
